Location: Chinna Viriv?da
(16.5281°N, 81.0493°E)
Time: 16:57:45
(UTC+00:00)

Yuri Rocket - Pass Details

Date: 14 April 2026
Orbit: 567 x 1898 km, 28.2° (Epoch: 11 May)

Event Time Altitude Azimuth Distance (km) Brightness Sun altitude
Rises 14:15:02 0° 285° (WNW) 2,745 8.0 -20.4°
Reaches altitude 10° 14:17:16 10° 278° (W) 1,873 6.7 -20.9°
Maximum altitude 14:21:15 41° 206° (SSW) 895 3.9 -21.8°
Enters shadow 14:22:15 36° 173° (S) 1,013 3.9 -22.0°
